Location: Moscow
(44.4414°N, 72.7154°W)
Time: 06:57:44
(UTC+00:00)

Vanguard 1 Rocket - Pass Details

Date: 19 November 2024
Orbit: 650 x 4218 km, 34.3° (Epoch: 04 December)

Event Time Altitude Azimuth Distance (km) Brightness Sun altitude
Rises 22:29:14 0° 279° (W) 6,893 13.2 -12.4°
Reaches altitude 10° 22:37:30 10° 260° (W) 4,968 12.6 -13.9°
Maximum altitude 22:43:00 14° 235° (SW) 3,992 11.7 -14.8°
Drops below altitude 10° 22:47:21 10° 208° (SSW) 3,723 11.1 -15.6°
Sets 22:51:49 0° 182° (S) 4,116 10.9 -16.3°
